Weather History for Eagle River, WI

Change the Weather History Date:

Wednesday, February 20, 2013

  Actual Average Record
Temperature  
Mean Temperature 9 °F -  
Max Temperature 17 °F 28 °F 44 °F (2003)
Min Temperature 1 °F 10 °F -14 °F (2008)
Degree Days  
Heating Degree Days 56    
Moisture  
Dew Point 3 °F    
Average Humidity 74    
Maximum Humidity 85    
Minimum Humidity 58    
Precipitation  
Precipitation 0.00 in - - ()
Sea Level Pressure  
Sea Level Pressure 30.24 in    
Wind  
Wind Speed 12 mph (North)    
Max Wind Speed 21 mph    
Max Gust Speed 28 mph    
Visibility 6 miles    
Events Snow    
Averages and records for this station are not official NWS values.
T = Trace of Precipitation, MM = Missing Value Source: NWS Daily Summary

Daily Weather History Graph

Daily Weather History Graph

Search for Another Location

Airport:

Trip Planner

Search our weather history database for the weather conditions in past years. The results will help you decide how hot, cold, wet, or windy it might be!

Date:

Astronomy

Feb. 20, 2013 Rise Set
Actual Time 6:51 AM CST 5:31 PM CST
Civil Twilight 6:20 AM CST 6:01 PM CST
Nautical Twilight 5:45 AM CST 6:36 PM CST
Astronomical Twilight 5:11 AM CST 7:10 PM CST
Moon 12:42 PM CST (2/20) 3:21 AM CST (2/20)
Length of Visible Light 11h 40m
Length of Day
10h 40m
Waxing Gibbous, 76% of the Moon is Illuminated
Feb 20
Waxing Gibbous
Feb 25
Full
Mar 4
Last Quarter
Mar 11
New
Mar 19
First Quarter

Hourly Weather History & Observations

Time (CST) Temp. Windchill Dew Point Humidity Pressure Visibility Wind Dir Wind Speed Gust Speed Precip Events Conditions
12:15 AM 8.6 °F -7.0 °F 3.2 °F 79% 30.06 in 4.0 mi NNW 12.7 mph 19.6 mph N/A Snow Light Snow
12:35 AM 8.6 °F -7.0 °F 3.2 °F 79% 30.06 in 5.0 mi NNW 12.7 mph - N/A Snow Light Snow
12:55 AM 8.6 °F -5.5 °F 3.2 °F 79% 30.07 in 3.0 mi NNW 10.4 mph 19.6 mph N/A Snow Light Snow
1:15 AM 8.6 °F -8.9 °F 3.2 °F 79% 30.07 in 3.0 mi NNW 16.1 mph 19.6 mph N/A Snow Light Snow
1:35 AM 8.6 °F -11.0 °F 3.2 °F 79% 30.08 in 2.0 mi North 20.7 mph 26.5 mph N/A Snow Light Snow
1:55 AM 8.6 °F -7.7 °F 3.2 °F 79% 30.09 in 2.0 mi North 13.8 mph 25.3 mph N/A Snow Light Snow
2:15 AM 8.6 °F -8.3 °F 3.2 °F 79% 30.10 in 1.8 mi NNW 15.0 mph 27.6 mph N/A Snow Light Snow
2:35 AM 8.6 °F -8.3 °F 1.4 °F 73% 30.11 in 3.0 mi NNW 15.0 mph 25.3 mph N/A Snow Light Snow
2:55 AM 8.6 °F -7.7 °F 1.4 °F 73% 30.12 in 3.0 mi NNW 13.8 mph 23.0 mph N/A Snow Light Snow
3:15 AM 8.6 °F -7.7 °F 3.2 °F 79% 30.13 in 2.5 mi North 13.8 mph 20.7 mph N/A Snow Light Snow
3:35 AM 8.6 °F -8.3 °F 3.2 °F 79% 30.13 in 2.5 mi NNW 15.0 mph 21.9 mph N/A Snow Light Snow
3:55 AM 8.6 °F -7.7 °F 3.2 °F 79% 30.14 in 3.0 mi North 13.8 mph - N/A Snow Light Snow
4:15 AM 8.6 °F -5.5 °F 3.2 °F 79% 30.15 in 3.0 mi North 10.4 mph 18.4 mph N/A Snow Light Snow
4:35 AM 8.6 °F -8.3 °F 3.2 °F 79% 30.16 in 1.8 mi NNW 15.0 mph 23.0 mph N/A Snow Light Snow
4:55 AM 8.6 °F -7.0 °F 3.2 °F 79% 30.17 in 3.0 mi NNW 12.7 mph - N/A Snow Light Snow
5:15 AM 8.6 °F -7.0 °F 3.2 °F 79% 30.18 in 1.8 mi North 12.7 mph 19.6 mph N/A Snow Light Snow
5:55 AM 8.6 °F -6.3 °F 3.2 °F 79% 30.20 in 2.0 mi NNW 11.5 mph 15.0 mph N/A Snow Light Snow
6:15 AM 8.6 °F -6.3 °F 3.2 °F 79% 30.21 in 3.0 mi NNW 11.5 mph - N/A Snow Light Snow
6:55 AM 8.6 °F -8.9 °F 3.2 °F 79% 30.22 in 1.0 mi North 16.1 mph 24.2 mph N/A Snow Light Snow
7:15 AM 8.6 °F -5.5 °F 3.2 °F 79% 30.23 in 2.0 mi North 10.4 mph - N/A Snow Light Snow
7:35 AM 8.6 °F -3.7 °F 3.2 °F 79% 30.23 in 4.0 mi NNW 8.1 mph - N/A Snow Light Snow
7:55 AM 8.6 °F -7.7 °F 3.2 °F 79% 30.23 in 3.0 mi NNW 13.8 mph 20.7 mph N/A Snow Light Snow
8:15 AM 8.6 °F -6.3 °F 3.2 °F 79% 30.24 in 1.5 mi North 11.5 mph 23.0 mph N/A Snow Light Snow
8:35 AM 8.6 °F -4.7 °F 3.2 °F 79% 30.24 in 2.5 mi North 9.2 mph 17.3 mph N/A Snow Light Snow
8:55 AM 10.4 °F -5.4 °F 3.2 °F 73% 30.24 in 2.0 mi NNW 13.8 mph 21.9 mph N/A Snow Light Snow
9:15 AM 10.4 °F -5.4 °F 3.2 °F 73% 30.24 in 1.5 mi North 13.8 mph 19.6 mph N/A Snow Light Snow
9:55 AM 12.2 °F -4.3 °F 3.2 °F 67% 30.25 in 3.0 mi North 16.1 mph 21.9 mph N/A Snow Light Snow
10:15 AM 12.2 °F -4.3 °F 3.2 °F 67% 30.26 in 3.0 mi North 16.1 mph 21.9 mph N/A   Haze
10:35 AM 12.2 °F -3.1 °F 3.2 °F 67% 30.25 in 4.0 mi North 13.8 mph - N/A   Haze
10:55 AM 12.2 °F -1.8 °F 3.2 °F 67% 30.26 in 4.0 mi North 11.5 mph 24.2 mph N/A   Haze
11:15 AM 14.0 °F -1.4 °F 5.0 °F 67% 30.26 in 7.0 mi NNE 15.0 mph 19.6 mph N/A   Overcast
11:35 AM 14.0 °F -0.2 °F 5.0 °F 67% 30.26 in 10.0 mi NNW 12.7 mph 18.4 mph N/A Snow Light Snow
11:55 AM 14.0 °F -3.0 °F 5.0 °F 67% 30.26 in 10.0 mi North 18.4 mph 25.3 mph N/A   Overcast
12:15 PM 15.8 °F -0.2 °F 5.0 °F 62% 30.26 in 7.0 mi North 17.3 mph 21.9 mph N/A   Scattered Clouds
12:35 PM 17.6 °F 7.3 °F 5.0 °F 58% 30.25 in 10.0 mi North 8.1 mph - N/A   Mostly Cloudy
12:55 PM 15.8 °F 2.7 °F 5.0 °F 62% 30.26 in 10.0 mi North 11.5 mph 18.4 mph N/A   Mostly Cloudy
1:15 PM 17.6 °F 5.0 °F 5.0 °F 58% 30.25 in 10.0 mi North 11.5 mph - N/A   Mostly Cloudy
1:35 PM 17.6 °F 3.7 °F 5.0 °F 58% 30.26 in 10.0 mi North 13.8 mph - N/A   Mostly Cloudy
2:15 PM 17.6 °F 6.4 °F 5.0 °F 58% 30.26 in 10.0 mi NNE 9.2 mph 18.4 mph N/A   Mostly Cloudy
2:35 PM 17.6 °F 5.0 °F 5.0 °F 58% 30.27 in 10.0 mi North 11.5 mph 19.6 mph N/A   Scattered Clouds
2:55 PM 15.8 °F 2.1 °F 6.8 °F 68% 30.28 in 10.0 mi NNW 12.7 mph - N/A   Mostly Cloudy
3:15 PM 17.6 °F 6.4 °F 6.8 °F 63% 30.29 in 10.0 mi NNW 9.2 mph - N/A   Mostly Cloudy
3:35 PM 15.8 °F 4.2 °F 6.8 °F 68% 30.30 in 10.0 mi NNW 9.2 mph - N/A   Mostly Cloudy
3:55 PM 14.0 °F 2.0 °F 5.0 °F 67% 30.31 in 10.0 mi NNW 9.2 mph - N/A   Mostly Cloudy
4:15 PM 14.0 °F 0.5 °F 5.0 °F 67% 30.32 in 10.0 mi NNW 11.5 mph - N/A   Mostly Cloudy
4:35 PM 14.0 °F 1.2 °F 5.0 °F 67% 30.32 in 10.0 mi NNW 10.4 mph - N/A   Scattered Clouds
4:55 PM 14.0 °F 2.0 °F 5.0 °F 67% 30.33 in 10.0 mi North 9.2 mph - N/A   Clear
5:15 PM 12.2 °F -0.2 °F 5.0 °F 73% 30.33 in 10.0 mi North 9.2 mph - N/A   Clear
5:35 PM 12.2 °F 1.7 °F 3.2 °F 67% 30.33 in 10.0 mi North 6.9 mph - N/A   Scattered Clouds
5:55 PM 10.4 °F -1.5 °F 3.2 °F 73% 30.34 in 10.0 mi North 8.1 mph - N/A   Clear
6:15 PM 10.4 °F -2.4 °F 3.2 °F 73% 30.34 in 10.0 mi North 9.2 mph - N/A   Scattered Clouds
6:55 PM 8.6 °F -5.5 °F 3.2 °F 79% 30.35 in 10.0 mi NNW 10.4 mph - N/A Snow Light Snow
7:15 PM 8.6 °F -5.5 °F 3.2 °F 79% 30.36 in 10.0 mi North 10.4 mph - N/A Snow Light Snow
7:35 PM 8.6 °F 0.1 °F 3.2 °F 79% 30.36 in 10.0 mi North 4.6 mph - N/A   Scattered Clouds
7:55 PM 6.8 °F -3.5 °F 1.4 °F 79% 30.35 in 10.0 mi North 5.8 mph - N/A   Clear
8:15 PM 5.0 °F - 1.4 °F 85% 30.35 in 10.0 mi Calm Calm - N/A   Clear
8:35 PM 5.0 °F - 1.4 °F 85% 30.35 in 10.0 mi Calm Calm - N/A   Clear
8:55 PM 5.0 °F -2.1 °F 1.4 °F 85% 30.34 in 10.0 mi NNE 3.5 mph - N/A   Clear
9:35 PM 3.2 °F -7.8 °F -0.4 °F 85% 30.32 in 10.0 mi NNE 5.8 mph - N/A   Clear
9:55 PM 3.2 °F - -0.4 °F 85% 30.32 in 10.0 mi Calm Calm - N/A   Clear
10:55 PM 3.2 °F -4.2 °F -0.4 °F 85% 30.31 in 10.0 mi NNE 3.5 mph - N/A   Clear
11:15 PM 3.2 °F -4.2 °F -2.2 °F 78% 30.30 in 10.0 mi NNE 3.5 mph - N/A   Clear
11:35 PM 1.4 °F - -4.0 °F 78% 30.31 in 10.0 mi Calm Calm - N/A   Clear
11:55 PM 3.2 °F - -0.4 °F 85% 30.31 in 10.0 mi Calm Calm - N/A   Clear